| time (UTC) | temp C | wind direction | speed KPH | gust KPH | rain 1hr cm | rain 24hr cm | rain mn cm | humidity % | barometer mb |
| 20260504031003 | 12 | 239 | 8.0 | 19.3 | 0.00 | 0.08 | 0.08 | 61 | 1013.8 |
| 20260504030002 | 12 | 236 | 6.4 | 14.5 | 0.00 | 0.08 | 0.08 | 61 | 1013.8 |
| 20260504024002 | 11 | 233 | 4.8 | 12.9 | 0.00 | 0.08 | 0.08 | 64 | 1013.9 |
| 20260504023002 | 11 | 257 | 4.8 | 19.3 | 0.00 | 0.08 | 0.08 | 66 | 1013.9 |
| 20260504022004 | 10 | 251 | 1.6 | 4.8 | 0.00 | 0.08 | 0.08 | 72 | 1014.0 |
| 20260504021002 | 11 | 218 | 3.2 | 12.9 | 0.00 | 0.08 | 0.08 | 71 | 1014.0 |
| 20260504020002 | 10 | 230 | 3.2 | 8.0 | 0.00 | 0.08 | 0.08 | 69 | 1014.1 |
| 20260504015003 | 11 | 221 | 3.2 | 19.3 | 0.00 | 0.08 | 0.08 | 72 | 1014.1 |
| 20260504014002 | 10 | 218 | 3.2 | 12.9 | 0.00 | 0.08 | 0.08 | 72 | 1014.1 |
| 20260504013003 | 10 | 219 | 4.8 | 12.9 | 0.00 | 0.08 | 0.08 | 73 | 1014.1 |
| 20260504012002 | 10 | 237 | 3.2 | 9.7 | 0.03 | 0.08 | 0.08 | 75 | 1014.1 |
| 20260504011002 | 10 | 246 | 4.8 | 12.9 | 0.03 | 0.08 | 0.08 | 82 | 1014.2 |
| 20260504010002 | 9 | 254 | 1.6 | 4.8 | 0.03 | 0.08 | 0.08 | 89 | 1014.2 |
| 20260504005002 | 9 | 238 | 1.6 | 11.3 | 0.03 | 0.08 | 0.08 | 92 | 1014.1 |
| 20260504004002 | 9 | 208 | 1.6 | 4.8 | 0.03 | 0.08 | 0.08 | 94 | 1014.2 |
| 20260504003002 | 9 | 200 | 0.0 | 4.8 | 0.03 | 0.08 | 0.08 | 93 | 1014.3 |
| 20260504002002 | 9 | 200 | 1.6 | 3.2 | 0.00 | 0.05 | 0.05 | 93 | 1014.3 |
| 20260504000002 | 9 | 200 | 0.0 | 1.6 | 0.03 | 0.05 | 0.05 | 92 | 1014.6 |
| 20260503235003 | 10 | 200 | 1.6 | 3.2 | 0.03 | 0.05 | 0.05 | 92 | 1014.6 |
| 20260503234002 | 10 | 221 | 1.6 | 3.2 | 0.03 | 0.05 | 0.05 | 91 | 1014.9 |
| 20260503233003 | 10 | 300 | 1.6 | 4.8 | 0.05 | 0.05 | 0.05 | 91 | 1014.9 |
| 20260503231002 | 10 | 250 | 0.0 | 3.2 | 0.05 | 0.05 | 0.05 | 89 | 1015.0 |
| 20260503230002 | 10 | 250 | 1.6 | 4.8 | 0.03 | 0.03 | 0.03 | 88 | 1015.0 |
| 20260503224003 | 11 | 277 | 1.6 | 4.8 | 0.03 | 0.03 | 0.03 | 83 | 1015.2 |
| 20260503223002 | 12 | 275 | 3.2 | 14.5 | 0.00 | 0.00 | 0.00 | 78 | 1015.1 |
| 20260503221003 | 12 | 263 | 3.2 | 11.3 | 0.00 | 0.00 | 0.00 | 64 | 1014.6 |
| 20260503220003 | 12 | 265 | 3.2 | 11.3 | 0.00 | 0.00 | 0.00 | 63 | 1014.5 |
| 20260503214004 | 12 | 261 | 1.6 | 9.7 | 0.00 | 0.00 | 0.00 | 63 | 1014.4 |
| 20260503213003 | 12 | 200 | 3.2 | 16.1 | 0.00 | 0.00 | 0.00 | 63 | 1014.3 |
| 20260503212004 | 12 | 264 | 3.2 | 12.9 | 0.00 | 0.00 | 0.00 | 61 | 1014.2 |
| 20260503210003 | 12 | 197 | 6.4 | 20.9 | 0.00 | 0.00 | 0.00 | 61 | 1014.3 |
| 20260503205003 | 12 | 254 | 4.8 | 19.3 | 0.00 | 0.00 | 0.00 | 60 | 1014.3 |
| 20260503204003 | 13 | 240 | 11.3 | 19.3 | 0.00 | 0.00 | 0.00 | 58 | 1014.3 |
| 20260503202004 | 13 | 202 | 4.8 | 14.5 | 0.00 | 0.00 | 0.00 | 57 | 1014.5 |
| 20260503201002 | 13 | 231 | 3.2 | 14.5 | 0.00 | 0.00 | 0.00 | 56 | 1014.7 |
| 20260503200003 | 13 | 237 | 4.8 | 14.5 | 0.00 | 0.00 | 0.00 | 55 | 1014.9 |
| 20260503195003 | 13 | 207 | 4.8 | 19.3 | 0.00 | 0.00 | 0.00 | 54 | 1015.1 |
| 20260503194003 | 13 | 250 | 4.8 | 19.3 | 0.00 | 0.00 | 0.00 | 55 | 1015.4 |
| 20260503193003 | 13 | 244 | 8.0 | 19.3 | 0.00 | 0.00 | 0.00 | 51 | 1015.5 |
| 20260503191003 | 14 | 259 | 8.0 | 19.3 | 0.00 | 0.00 | 0.00 | 50 | 1015.8 |
| 20260503190002 | 14 | 265 | 6.4 | 29.0 | 0.00 | 0.00 | 0.00 | 49 | 1015.9 |
| 20260503184003 | 13 | 230 | 8.0 | 22.5 | 0.00 | 0.00 | 0.00 | 52 | 1016.4 |
| 20260503183003 | 13 | 242 | 4.8 | 20.9 | 0.00 | 0.00 | 0.00 | 55 | 1016.6 |
| 20260503182004 | 13 | 255 | 6.4 | 22.5 | 0.00 | 0.00 | 0.00 | 53 | 1016.7 |
| 20260503180003 | 13 | 247 | 8.0 | 20.9 | 0.00 | 0.00 | 0.00 | 49 | 1017.0 |
| 20260503175003 | 13 | 218 | 9.7 | 19.3 | 0.00 | 0.00 | 0.00 | 48 | 1017.3 |
| 20260503172003 | 13 | 184 | 4.8 | 19.3 | 0.00 | 0.00 | 0.00 | 54 | 1017.7 |
| 20260503171004 | 13 | 238 | 4.8 | 16.1 | 0.00 | 0.00 | 0.00 | 50 | 1017.9 |
| 20260503151003 | 12 | 272 | 3.2 | 12.9 | 0.00 | 0.00 | 0.00 | 59 | 1018.9 |
| 20260503131004 | 8 | 222 | 3.2 | 11.3 | 0.00 | 0.00 | 0.00 | 78 | 1019.8 |
| 20260503081001 | 0 | 232 | 0.0 | 0.0 | 0.00 | 0.00 | 0.00 | 93 | 1020.2 |
| 20260503072001 | 0 | 232 | 0.0 | 0.0 | 0.00 | 0.00 | 0.00 | 92 | 1020.1 |
| 20260503071002 | 0 | 232 | 0.0 | 0.0 | 0.00 | 0.00 | 0.00 | 92 | 1020.2 |
| 20260503055001 | 1 | 232 | 0.0 | 0.0 | 0.00 | 0.00 | 0.00 | 89 | 1020.4 |
| 20260503054002 | 1 | 232 | 0.0 | 0.0 | 0.00 | 0.00 | 0.00 | 89 | 1020.5 |
| 20260503053001 | 2 | 232 | 0.0 | 0.0 | 0.00 | 0.00 | 0.00 | 88 | 1020.5 |
| 20260503052002 | 2 | 232 | 0.0 | 0.0 | 0.00 | 0.00 | 0.00 | 88 | 1020.6 |
| 20260503051003 | 2 | 232 | 0.0 | 0.0 | 0.00 | 0.00 | 0.00 | 87 | 1020.7 |
| 20260503050002 | 2 | 232 | 0.0 | 0.0 | 0.00 | 0.00 | 0.00 | 87 | 1020.7 |
| 20260503045002 | 2 | 232 | 0.0 | 0.0 | 0.00 | 0.00 | 0.00 | 85 | 1020.7 |
| 20260503043003 | 3 | 232 | 0.0 | 0.0 | 0.00 | 0.00 | 0.00 | 84 | 1020.8 |
| 20260503042002 | 3 | 232 | 0.0 | 0.0 | 0.00 | 0.00 | 0.00 | 83 | 1020.8 |
| 20260503041002 | 3 | 232 | 0.0 | 0.0 | 0.00 | 0.00 | 0.00 | 83 | 1020.9 |
| 20260503040001 | 4 | 232 | 0.0 | 0.0 | 0.00 | 0.00 | 0.00 | 82 | 1020.8 |
| 20260503035002 | 4 | 232 | 0.0 | 0.0 | 0.00 | 0.00 | 0.00 | 81 | 1020.9 |
| 20260503034002 | 4 | 232 | 0.0 | 0.0 | 0.00 | 0.00 | 0.00 | 81 | 1020.9 |
| 20260503032002 | 5 | 232 | 0.0 | 0.0 | 0.00 | 0.00 | 0.00 | 79 | 1021.0 |